SCP
0 0 0 1 1 0 0 0 0 0 0 0 0 0 0 0 0 0 0 0 1 1 1 1 1 1 1 1 1 1 1 1 1 1 1 1 1 1 1 0 0 0 0 0 0 0 0 0 0
0 0 0 1 0 0 0 0 0 0 0 0 0 0 0 0 0 0 0 0 1 1 1 1 1 1 1 1 1 1 1 1 1 1 1 1 1 1 1 0 0 0 0 0 0 0 0 0 0
0 0 0 0 0 0 0 0 0 0 0 0 0 0 0 0 0 0 0 0 1 1 1 1 1 1 1 1 1 1 1 1 1 1 1 1 1 1 1 0 0 0 0 0 0 0 1 0 0
0 0 0 0 0 0 0 0 0 0 0 0 0 0 0 0 0 0 0 0 0 1 1 1 1 1 1 1 1 1 1 1 1 1 1 1 1 1 1 0 0 0 0 0 0 1 1 1 1
0 0 0 0 0 0 0 0 0 0 0 0 0 0 0 0 0 0 0 0 1 1 1 1 1 1 1 1 1 1 1 1 1 1 1 1 1 1 1 0 0 0 0 0 0 1 1 1 1
0 0 0 0 0 0 0 0 0 0 0 0 0 0 0 0 0 0 1 1 1 1 1 1 1 1 1 1 1 1 1 1 1 1 1 1 1 1 1 0 0 0 0 0 0 1 1 1 1
0 0 0 0 0 0 0 0 0 0 0 0 0 0 0 0 0 1 1 1 1 1 2 2 2 1 1 1 1 1 1 1 1 1 1 1 1 1 1 0 0 0 0 0 0 1 1 1 0
0 0 0 0 0 0 0 0 0 0 0 0 0 0 0 0 0 1 1 1 1 1 2 2 2 1 1 1 1 1 1 1 1 1 1 1 1 1 0 0 0 0 0 0 1 1 1 0 0
0 0 0 0 0 0 0 0 0 0 0 0 0 0 0 0 0 1 1 1 1 2 2 2 2 2 1 1 1 0 0 1 1 1 1 1 1 1 0 0 0 0 0 0 1 1 1 0 0
0 0 0 0 0 0 0 0 0 0 0 0 0 0 0 0 0 0 0 1 1 2 2 2 2 2 2 1 1 1 1 1 1 1 1 1 1 1 0 0 0 0 0 0 1 1 0 0 0
0 0 0 0 0 0 0 0 0 0 0 0 0 0 0 0 0 0 0 0 1 2 2 2 2 2 2 2 2 1 1 1 1 1 1 1 1 1 0 0 0 0 0 0 0 0 0 1 1
0 0 0 0 0 0 0 0 0 0 0 0 0 0 0 0 0 0 0 0 1 1 2 2 2 2 3 3 2 2 2 1 1 1 0 0 0 0 0 0 0 0 0 0 0 0 1 1 1
0 0 0 0 0 0 0 0 0 0 0 1 1 1 0 0 0 0 0 0 0 1 1 2 2 3 3 3 3 3 2 2 1 1 0 0 0 0 0 0 0 0 0 0 0 0 1 1 1
0 0 0 0 0 0 0 0 0 0 0 1 1 1 1 0 0 0 0 0 0 1 1 2 3 3 3 3 3 3 3 2 1 1 0 0 0 0 0 0 0 0 0 0 0 0 0 1 1
0 0 0 0 0 0 0 0 0 0 0 0 1 1 1 1 0 0 0 0 0 1 1 2 3 3 3 3 3 3 3 2 1 1 0 0 0 0 0 0 0 0 0 0 0 0 0 0 1
0 0 0 0 0 0 0 0 0 0 0 0 0 1 1 1 0 0 0 0 0 0 1 1 2 3 3 3 3 3 2 2 1 1 0 0 0 0 0 0 0 0 0 0 0 0 0 0 0
0 0 0 0 0 0 0 0 0 0 0 0 0 1 1 0 0 0 0 0 0 0 0 1 1 2 3 3 3 2 2 1 1 0 0 0 0 0 0 0 0 0 0 0 0 0 0 0 0
0 0 0 0 0 0 0 0 0 0 0 0 0 0 0 0 0 0 0 0 0 0 0 0 1 2 2 2 2 2 2 1 1 0 0 0 0 0 0 0 0 0 0 0 0 0 0 0 0
0 0 0 0 0 0 0 0 0 0 0 0 0 0 0 0 0 0 0 0 0 0 0 0 1 1 2 2 2 2 1 1 0 0 0 0 0 0 0 0 0 0 0 0 0 0 0 0 0
0 0 0 0 0 0 0 0 0 0 0 0 0 0 0 0 0 0 0 0 0 0 0 0 0 1 1 1 2 1 1 0 0 0 0 0 0 0 0 0 0 0 0 0 0 0 0 0 0
0 0 0 0 0 0 0 0 0 0 0 0 0 0 0 0 0 0 0 0 0 0 0 0 0 1 1 1 1 1 0 0 0 0 0 0 0 0 0 0 0 0 0 0 0 0 0 0 0
0 0 0 0 0 0 0 0 0 0 0 0 0 0 0 0 0 0 0 0 0 0 0 0 0 1 1 1 1 1 0 0 0 0 0 0 0 0 0 0 0 0 0 0 0 0 0 0 0
0 0 0 0 0 0 0 0 0 0 0 0 0 0 0 0 0 0 0 0 0 0 0 0 0 1 1 1 1 1 0 0 0 0 0 0 0 0 0 0 0 0 0 0 0 0 0 0 0
0 0 0 0 0 0 0 0 0 0 0 0 0 0 0 0 0 0 0 0 0 0 0 0 0 1 1 1 1 1 1 0 0 0 0 0 0 0 0 0 0 0 0 0 0 0 0 0 0
0 0 0 0 0 0 0 0 0 0 0 0 0 0 0 0 0 0 0 0 0 0 0 0 0 1 1 1 1 1 1 0 0 0 0 0 0 0 0 0 0 0 0 0 0 0 0 0 0
0 0 0 0 0 0 0 0 0 0 0 0 0 0 0 0 0 0 0 0 0 0 0 0 0 0 1 1 1 1 1 1 0 0 0 0 0 0 0 0 0 0 0 0 0 0 0 0 0
0 0 0 0 0 0 0 0 0 0 0 0 0 0 0 0 0 0 0 0 0 0 0 0 0 0 0 0 1 1 1 1 0 0 0 0 0 0 0 0 0 0 0 0 0 0 0 0 0
0 0 0 0 0 0 0 0 0 0 0 0 0 0 0 0 0 0 0 0 0 0 0 0 0 0 0 0 0 0 1 0 0 0 0 0 0 0 0 0 0 0 0 0 0 0 0 0 0
0 0 0 0 0 0 0 0 0 0 0 0 0 0 0 0 0 0 0 0 0 0 0 0 0 0 0 0 0 0 0 0 0 0 0 0 0 0 0 0 0 0 0 0 0 0 0 0 0
0 0 0 0 0 0 0 0 0 0 0 0 0 0 0 0 0 0 0 0 0 0 0 0 0 0 0 0 0 0 0 0 0 0 0 0 0 0 0 0 0 0 0 0 0 0 0 0 0
Wind_Speed
4 2 2 3 4 4 6 4 3 3 2 1 1 0 1 1 1 3 4 2 2 2 3 2 1 3 4 5 6 6 7 7 8 8 8 8 8 8 8 9 9 9 9 9 9 9 9 10 10
2 1 2 3 5 7 5 4 5 3 1 2 1 1 1 2 2 3 2 2 1 2 3 3 3 4 4 5 6 6 7 7 8 8 8 8 8 8 8 8 8 8 9 9 9 8 9 9 9
0 1 2 3 5 7 5 3 3 2 1 1 2 1 1 2 2 2 2 0 1 3 3 3 3 4 5 5 5 6 6 7 7 8 8 7 8 7 7 7 7 7 8 8 8 8 8 8 9
2 2 2 4 7 6 4 1 2 3 2 1 1 2 2 2 2 2 2 1 3 3 3 3 3 4 5 5 5 5 6 6 7 7 7 7 7 7 7 6 7 7 7 7 7 7 8 8 8
1 2 4 6 8 4 3 2 2 3 2 2 2 2 2 2 3 2 2 2 3 3 3 3 3 4 4 4 4 5 5 5 6 6 6 6 7 6 6 6 6 6 6 6 6 6 7 7 7
3 3 6 9 8 5 3 2 4 4 3 1 2 2 2 3 2 2 2 2 2 3 2 3 3 3 4 4 4 4 4 5 5 5 5 6 6 6 6 6 6 6 6 6 6 6 7 7 7
3 3 6 7 7 6 4 3 4 4 4 3 2 2 3 2 2 1 2 2 2 2 2 2 2 2 3 4 4 4 4 5 4 5 5 5 5 5 5 5 5 5 5 6 5 6 6 6 6
1 3 5 6 7 6 3 3 2 4 3 0 2 3 2 2 2 2 2 3 3 2 2 2 2 1 2 2 4 5 5 5 5 5 5 5 4 5 5 4 4 5 5 5 5 5 6 6 5
2 5 7 7 6 4 4 4 2 1 2 2 1 1 3 3 3 3 3 2 2 2 1 1 2 1 1 2 2 3 3 4 4 4 5 3 2 2 2 3 4 4 4 5 5 5 5 5 5
3 7 7 3 3 2 3 3 3 3 4 3 3 1 2 3 4 4 3 3 3 2 2 1 2 2 2 1 1 1 1 2 1 2 2 1 1 1 1 3 4 4 4 4 5 5 4 2 2
2 5 4 3 2 2 3 3 3 5 6 6 5 4 3 3 3 4 4 4 4 3 2 2 2 2 2 1 1 1 0 1 1 2 2 1 1 1 1 1 1 2 2 2 3 3 2 1 1
3 2 3 2 2 3 4 4 4 6 6 3 3 3 4 5 5 5 4 4 4 3 3 2 2 2 2 1 1 1 1 1 0 1 2 1 1 0 0 0 0 0 0 1 1 0 1 1 1
4 3 2 2 2 2 3 5 6 7 7 4 2 3 5 5 5 5 4 4 4 4 4 3 3 3 2 2 1 1 1 1 1 1 1 1 1 0 0 0 0 0 0 0 0 0 0 0 0
2 3 3 3 4 4 5 7 7 8 5 4 5 5 5 5 5 4 4 4 4 4 4 3 3 3 3 2 2 1 1 1 1 1 1 1 1 0 0 0 0 0 0 1 1 1 1 1 1
3 2 3 3 4 3 4 7 9 7 5 5 5 5 6 5 5 5 5 5 5 4 4 3 3 3 3 2 2 1 1 1 1 1 1 1 1 1 0 0 0 0 1 1 0 1 1 1 1
3 4 5 3 3 4 6 10 4 3 6 6 6 6 6 5 5 5 4 4 4 3 3 3 2 3 3 2 2 1 1 1 1 0 1 1 1 1 1 0 0 1 0 0 1 1 1 1 1
5 6 6 3 2 3 7 9 4 3 6 7 6 6 5 5 5 4 4 4 3 3 3 3 3 3 3 2 2 2 1 1 1 1 1 1 1 1 1 1 0 0 0 0 0 1 1 1 2
6 6 6 6 2 4 8 10 8 5 7 8 7 6 5 5 5 3 3 3 3 2 2 3 3 3 3 3 2 2 1 1 1 1 0 1 1 1 1 1 0 0 0 0 0 1 1 1 2
4 5 7 6 3 6 10 12 11 8 8 9 8 7 6 5 3 2 2 2 2 2 2 2 2 2 2 2 2 2 1 1 1 1 1 0 1 1 1 1 1 0 1 1 1 1 1 1 1
5 6 7 5 3 5 9 13 11 10 9 8 8 8 7 5 4 2 2 2 2 2 2 2 3 2 2 2 1 1 1 1 0 0 0 0 0 1 1 1 1 1 1 1 1 0 1 1 1
6 8 7 5 4 4 8 10 8 7 7 7 8 8 7 6 5 4 3 2 2 2 3 2 2 2 2 2 2 2 1 1 1 0 0 0 0 1 1 1 1 1 1 1 1 1 1 1 1
7 5 6 6 5 4 4 8 7 5 6 7 7 7 6 6 5 4 4 3 2 2 2 2 2 2 2 3 3 3 2 1 1 1 1 1 0 1 1 1 1 2 2 2 2 2 2 2 2
3 1 4 6 6 6 5 7 7 3 6 7 6 6 5 5 5 4 4 3 2 2 2 2 2 2 2 2 3 3 2 1 1 1 1 1 1 1 1 1 2 2 2 2 2 2 2 2 2
2 1 1 3 4 7 7 8 8 4 5 4 3 3 3 3 3 3 3 2 2 2 2 2 3 2 2 2 2 3 3 3 2 2 2 1 1 1 1 1 2 2 2 2 2 3 3 3 3
3 3 2 3 5 6 3 8 9 2 2 2 3 3 2 2 2 2 3 3 3 2 2 2 3 2 2 2 2 2 3 3 3 2 2 2 1 1 2 2 2 2 2 3 3 3 3 3 4
5 5 4 5 5 4 4 9 5 0 0 1 2 2 2 2 2 2 2 3 3 2 2 2 2 2 2 2 1 1 2 2 2 2 2 3 2 2 2 3 3 3 3 3 3 3 3 3 4
4 5 2 1 1 4 6 6 6 2 2 1 1 1 2 2 2 2 2 2 2 3 2 2 2 2 2 2 2 2 2 2 2 3 3 2 2 2 3 3 3 3 3 3 3 3 3 3 4
2 3 3 4 5 6 6 7 5 3 3 3 2 2 2 2 2 2 2 2 2 2 2 2 2 2 1 1 1 1 1 2 2 2 3 3 3 3 3 3 3 3 3 3 4 3 3 4 4
4 4 4 3 3 5 6 5 1 3 2 2 3 3 2 2 2 2 1 1 1 1 1 2 2 2 1 1 1 2 1 2 2 2 3 3 3 3 3 3 4 4 4 4 4 4 4 5 4
4 5 6 5 5 5 6 6 2 1 1 2 3 2 2 2 2 2 1 1 1 1 1 2 2 2 2 2 2 2 2 2 2 3 3 3 4 3 3 4 4 4 4 4 5 5 5 5 5
Wind_Direction
329 300 239 215 208 216 225 205 195 172 166 77 28 296 160 71 341 57 54 44 22 127 139 140 41 76 93 98 101 104 104 104 105 103 103 101 98 92 88 85 81 79 76 73 72 73 72 71 69
319 267 210 211 226 221 216 206 201 197 105 115 118 134 140 95 34 39 47 10 38 128 134 139 67 77 90 97 97 95 101 105 104 102 102 103 99 94 91 88 83 79 77 74 72 76 77 74 72
220 308 211 201 223 234 216 180 203 183 136 191 144 70 12 51 65 32 18 342 139 132 130 113 63 82 89 91 95 96 94 101 103 102 101 102 102 97 92 90 86 81 79 78 75 77 79 74 73
219 170 187 223 221 235 249 175 152 164 156 189 192 135 112 46 22 17 37 144 145 137 130 110 64 83 86 86 89 91 95 96 97 101 102 100 99 100 94 93 88 83 81 79 78 80 81 76 74
225 203 204 223 232 229 246 246 214 212 172 147 194 169 140 93 39 49 83 140 146 140 130 125 76 83 86 85 90 86 89 94 92 95 99 100 98 100 98 93 89 85 83 83 81 82 85 82 76
182 209 221 227 227 222 223 234 216 227 221 194 205 199 165 93 51 53 95 132 137 133 125 120 75 69 78 79 83 85 84 90 93 90 90 90 91 93 98 95 90 86 86 87 85 85 87 84 78
209 211 235 236 231 229 223 203 228 227 223 225 238 205 152 119 45 79 128 129 126 121 122 122 128 107 80 74 68 71 74 78 81 83 77 71 74 81 80 86 87 85 91 90 86 85 85 83 79
243 210 225 228 228 232 196 186 227 241 234 240 230 227 180 83 81 120 128 127 127 124 131 136 140 135 138 129 76 64 65 67 66 68 64 63 72 79 73 74 76 81 90 92 87 85 86 82 80
215 224 231 226 224 215 174 192 189 238 195 175 214 307 35 91 133 133 130 131 133 139 145 158 160 151 137 136 105 94 77 71 73 78 64 72 122 113 99 71 61 76 89 97 93 89 84 81 83
212 226 234 240 243 206 179 205 196 196 210 211 213 199 109 144 161 163 166 174 181 188 184 180 186 177 160 134 142 151 133 119 113 102 97 102 115 97 71 78 61 63 76 97 100 94 96 87 100
197 225 219 229 231 228 217 227 235 229 240 240 237 225 187 187 192 199 203 201 205 204 197 202 203 189 176 162 160 144 139 122 130 104 85 73 108 121 113 109 107 96 94 105 105 114 107 89 74
180 222 232 232 221 225 235 236 240 244 258 290 256 217 198 205 213 218 219 218 212 208 207 206 209 196 182 175 170 162 147 117 94 99 99 104 86 75 112 100 65 88 67 75 88 74 92 107 128
205 213 226 237 216 237 243 245 256 256 259 259 229 204 210 215 222 225 229 226 220 214 211 205 204 201 182 177 168 168 158 136 128 106 103 84 109 102 69 101 84 69 41 58 25 64 142 192 192
170 187 217 243 243 249 245 258 253 251 248 227 220 223 225 229 231 228 227 227 228 227 218 208 200 201 183 177 172 171 154 128 141 124 107 120 105 92 66 89 168 35 346 330 293 264 260 255 248
148 177 239 248 244 234 243 254 238 245 229 232 233 235 236 241 239 235 232 231 230 228 217 204 197 189 182 178 174 160 150 145 143 138 136 119 116 138 110 12 37 346 329 300 263 258 247 247 248
187 217 232 221 228 225 233 255 241 212 214 231 238 237 235 243 249 252 250 243 238 226 212 199 184 181 177 171 170 162 161 148 136 127 127 126 127 114 115 111 343 356 348 301 267 248 247 242 246
204 225 237 237 212 224 230 256 250 207 223 239 240 240 239 245 255 258 255 245 239 225 207 192 183 181 176 166 161 151 148 138 136 129 117 110 117 124 146 139 341 323 16 292 293 280 261 254 256
209 224 237 243 237 239 243 253 260 235 236 247 247 244 243 247 255 260 256 243 231 219 204 189 179 176 171 166 159 152 141 133 140 146 91 121 126 130 157 145 160 218 190 244 271 286 299 286 281
219 228 245 260 273 261 256 261 263 255 245 247 248 247 247 249 250 244 246 226 209 196 188 187 176 174 171 170 172 175 173 143 138 111 87 150 146 150 161 149 164 211 214 253 277 288 291 316 306
218 233 251 267 271 267 274 271 265 252 245 247 247 245 245 248 240 228 227 206 196 190 189 188 185 178 177 176 167 177 170 153 143 83 96 44 152 171 186 170 176 207 216 208 252 298 284 304 306
231 237 244 259 283 255 284 268 245 237 241 245 245 243 243 239 237 229 215 206 190 187 192 187 184 178 174 164 145 141 143 161 172 116 22 353 310 203 205 196 192 207 213 217 226 231 259 250 266
242 238 239 246 256 261 271 277 253 240 248 241 237 233 236 234 230 227 218 205 199 196 185 180 175 173 169 166 167 172 180 187 222 252 268 277 266 257 226 218 211 207 216 224 225 234 246 235 230
243 229 230 240 245 259 235 257 264 219 250 248 240 236 236 232 226 222 218 209 199 188 176 172 163 162 163 170 178 182 188 193 204 217 238 253 235 252 243 231 227 223 225 225 225 229 233 234 235
181 167 190 220 231 248 231 238 265 218 231 239 230 233 236 232 225 218 206 194 189 177 168 166 161 162 165 173 181 190 193 198 201 214 231 253 253 250 250 235 235 232 233 232 234 231 230 238 241
204 199 220 221 224 240 199 234 252 236 216 242 253 243 233 218 211 203 198 194 192 182 178 178 170 172 177 180 190 207 213 211 212 220 229 243 251 257 255 243 236 235 236 236 237 232 234 236 237
207 221 229 241 244 253 208 236 245 102 266 271 277 261 242 218 211 208 210 209 204 202 200 198 191 187 188 192 199 213 222 225 226 229 241 241 249 255 253 248 241 240 240 236 233 232 233 235 239
190 213 258 246 305 269 242 256 275 213 238 239 251 258 242 228 218 217 215 219 221 218 219 217 208 199 199 205 204 207 220 230 235 236 239 245 251 261 253 248 245 243 241 239 237 237 234 235 238
255 175 184 206 225 250 257 251 243 213 222 218 236 245 247 246 237 227 215 218 238 242 227 220 219 213 214 212 215 222 234 243 247 243 244 246 255 257 255 249 249 243 242 241 238 243 241 238 240
178 190 210 213 242 244 258 256 224 202 201 219 237 247 252 255 255 251 245 239 242 260 250 228 223 224 225 225 223 219 229 244 249 249 253 251 253 255 252 249 250 245 240 240 239 242 243 241 243
235 217 201 215 222 234 259 267 86 200 289 276 280 276 263 257 261 271 274 277 267 269 285 267 242 235 240 237 240 239 236 239 245 254 259 256 253 253 254 252 250 248 244 241 240 242 242 240 243